Regional Weather Roundup
Issued by NWS Sterling, VA

Home | Current Version | Previous Version | Text Only | Print | Product List | Glossary On
Versions: 1 2 3 4 5 6 7 8 9 10 11 12 13 14 15 16 17 18 19 20 21 22 23 24 25 26 27 28 29 30 31 32 33 34 35 36 37 38 39 40
000
ASUS41 KLWX 260410
RWRLWX

REGIONAL WEATHER ROUNDUP
NATIONAL WEATHER SERVICE BALTIMORE MD/WASHINGTON DC
1100 PM EST THU DEC 25 2014

Note: "FAIR" indicates few or no clouds below 12,000 feet
with no significant weather and/or obstructions to visibility.
 TC=TEMPERATURE CELSIUS

 * =Non NWS site. Station does not report precipitation (e.g. rain,
    snow, etc.), thunder, or fog.

DCZ001-MDZ009-015-VAZ040>042-051-053>054-260500-
WASHINGTON METRO

CITY           SKY/WX    TMP DP  RH WIND       PRES   REMARKS
WASHINGTON NAT FAIR      47  29  49 NW12      30.24R
DULLES         CLEAR     39  28  64 W6        30.25R
ANDREWS AFB    CLEAR     42  30  62 W6        30.22R
FT BELVOIR     CLEAR     42  29  59 W3        30.24R
QUANTICO       CLEAR     37  33  85 NW6       30.25R
COLLEGE PARK*  FAIR      43  32  65 W3        30.24R
LEESBURG*      CLEAR     39  32  75 SW3       30.25R
MANASSAS*      CLEAR     32  30  93 SE5       30.24R
GAITHERSBURG*  CLEAR     36  27  69 CALM      30.27R

$$

MDZ006>007-011-014-260500-
BALTIMORE METRO

CITY           SKY/WX    TMP DP  RH WIND       PRES   REMARKS
BWI AIRPORT    CLEAR     39  30  70 W3        30.23R
MD SCIENCE CTR   N/A     41  31  67 MISG      30.22R
MARTIN STATE   CLEAR     37  32  81 CALM      30.24R
ANNAPOLIS      CLEAR     42  29  59 W5        30.23R
FORT MEADE*    CLEAR     32  32 100 W5        30.26R

$$

MDZ012-015-019>023-260500-
MARYLAND EASTERN SHORE

CITY           SKY/WX    TMP DP  RH WIND       PRES   REMARKS
OCEAN CITY     CLEAR     35  31  85 CALM      30.22R
SALISBURY      CLEAR     39  32  76 CALM      30.22R
BAY BRIDGE AP*   N/A     43  34  70 W5        30.23R
CAMBRIDGE*     CLEAR     37  32  81 CALM      30.22R
EASTON*        CLEAR     43  34  69 CALM      30.25S

$$

MDZ017>025-260500-
SOUTHERN MARYLAND

CITY           SKY/WX    TMP DP  RH WIND       PRES   REMARKS
PATUXENT RIVER CLEAR     39  31  72 SW3       30.22F
ST INIGOES     CLEAR     35  31  85 CALM      30.22S
LEONARDTOWN*   CLEAR     37  30  75 CALM      30.24S

$$

MDZ003>005-260500-
NORTH CENTRAL MARYLAND

CITY           SKY/WX    TMP DP  RH WIND       PRES   REMARKS
FREDERICK*     CLEAR     39  28  65 CALM      30.26R
HAGERSTOWN APT CLEAR     41  28  60 W3        30.21R
WESTMINSTER*   PTCLDY    39  30  70 W6        30.21R

$$

MDZ501>502-260500-
WESTERN MARYLAND

CITY           SKY/WX    TMP DP  RH WIND       PRES   REMARKS
OAKLAND*       CLOUDY    32 N/A N/A W9G16     30.17S WCI  24
CUMBERLAND*    PTCLDY    43  30  61 W5G16     30.26S

$$

VAZ025>031-260500-
SHENANDOAH VALLEY

CITY           SKY/WX    TMP DP  RH WIND       PRES   REMARKS
WINCHESTER*    CLEAR     36  27  69 CALM      30.23R
FRONT ROYAL*   FAIR      34  30  86 S3        30.22R
LURAY*         FAIR      32  30  93 CALM      30.22F
NEW MARKET*    FAIR      28  26  92 CALM      30.22F
STAUNTON*      CLEAR     30  26  84 CALM      30.23F
WAYNESBORO*    FAIR      37  27  68 SW5       30.20F

$$

WVZ021-048>050-054>055-260500-
EASTERN WEST VIRGINIA PANHANDLE

CITY           SKY/WX    TMP DP  RH WIND       PRES   REMARKS
MARTINSBURG    CLEAR     36  26  67 SW6       30.23R
PETERSBURG*    CLEAR     30  28  90 CALM      30.24S

$$

VAZ036>039-050-260500-
CENTRAL FOOTHILLS

CITY           SKY/WX    TMP DP  RH WIND       PRES   REMARKS
CHARLOTTESVILL CLEAR     40  28  62 CALM      30.21F
CULPEPER*      CLEAR     32  30  93 CALM      30.23F
ORANGE*        CLEAR     32  32 100 CALM      30.23F
GORDONSVILLE*  FAIR      40  29  64 CALM      30.21S
WARRENTON*     FAIR      32  32 100 CALM      30.22F

$$

VAZ055>057-260500-
NORTH AND CENTRAL PIEDMONT

CITY           SKY/WX    TMP DP  RH WIND       PRES   REMARKS
FREDERICKSBRG* CLEAR     35  33  94 CALM      30.24R
STAFFORD*      CLEAR     30  30 100 CALM      30.28R

$$

NCZ024-NYZ072-PAZ021-071-VAZ022-071-260500-
OTHER REGIONAL OBSERVATIONS

CITY           SKY/WX    TMP DP  RH WIND       PRES   REMARKS
NEW YORK CITY  CLEAR     46  27  47 W12G18    30.11R
PHILADELPHIA   CLEAR     40  28  62 W9        30.19R
PITTSBURGH     CLOUDY    38  28  67 W7        30.21S
ROANOKE        CLEAR     39  28  64 CALM      30.24R
RICHMOND       CLEAR     42  31  64 CALM      30.23R
RALEIGH        CLEAR     36  32  85 CALM      30.27R

$$

ANZ530>537-260500-
MARINE OBSERVATIONS

STATION/POSITION TIME  TEMP    WIND        PRES
                       AIR SEA DIR/SP/G
                 (UTC) (F)     (DEG/KT/KT) (MB)
THOMAS PT LIGHT  0400   45 43  330/ 12/ 13 1024.6R
BALT KEY BRIDGE  0400   42     230/  8/  8 1023.3R
COVE POINT       0400   44     330/  4/  5 1023.3S
LEWISETTA        0400   41 45     CALM     1023.2S
SOLOMONS ISLAND  0400      44                N/A
PINEY POINT      0400           10/  3/  4   N/A

$$



USA.gov is the U.S. government's official web portal to all federal, state and local government web resources and services.